P/2016 G1 ( PanSTARRS ) 2021

Japanese version
Home page
Updated on August 14, 2021

---------------------------------------------------------------------

* Profile

* Orbital Elements

Epoch 2021 July 5.0 TT = JDT 2459400.5                                          
T 2021 Mar. 22.05642 TT                                 Rudenko                 
q   2.0376171            (2000.0)            P               Q                  
n   0.23739243     Peri.  111.17379     +0.70260774     +0.70734758             
a   2.5832006      Node   204.02407     -0.70281810     +0.67280382             
e   0.2112044      Incl.   10.96972     -0.11130625     +0.21678196             
P   4.15                                                                        
From 147 observations 2016 Mar. 12-Sept. 26, mean residual 0".7.                

* Magnitudes Graph

        H = 18.0  G = 0.15

        * Gray curve is:  m1 = 13.5 + 5 log d + 10.0 log r

---------------------------------------------------------------------

The orbital elements are published on M.P.E.C. 2021-P47.
The magnitudes graphs are made with Comet for Windows.

---------------------------------------------------------------------

Copyright(C) Seiichi Yoshida (comet@aerith.net). All rights reserved.